Regional Weather Roundup
Issued by NWS

Home | Current Version | Previous Version | Graphics & Text | Print | Product List | Glossary Off
Versions: 1 2 3 4 5 6 7 8 9 10 11 12 13 14 15 16 17 18 19 20 21 22 23 24 25 26 27 28 29 30 31 32 33 34 35 36 37 38 39 40 41 42 43 44 45 46 47 48 49 50

000
ASUS43 KMKX 311311
RWRWI

WISCONSIN REGIONAL WEATHER ROUNDUP
NATIONAL WEATHER SERVICE MILWAUKEE/SULLIVAN WI
800 AM CDT FRI JUL 31 2015

NOTE: "FAIR" INDICATES FEW OR NO CLOUDS BELOW 12,000 FEET WITH NO
SIGNIFICANT WEATHER AND/OR OBSTRUCTIONS TO VISIBILITY.

WIZ001-002-006>008-014>016-023>028-311400-
NORTHWEST WISCONSIN

CITY           SKY/WX    TMP DP  RH WIND       PRES   REMARKS
SUPERIOR ARPT  SUNNY     65  55  69 W8        29.97R
ASHLAND        SUNNY     67  56  67 W10G18    29.95R
HAYWARD        SUNNY     65  53  65 NW6       30.00R
SIREN          SUNNY     65  54  66 W9        30.03R
CUMBERLAND     SUNNY     63  52  67 W10       30.03R
RICE LAKE      SUNNY     64  56  73 W7        30.03S
CHETEK         SUNNY     66  55  68 W7        30.02R
LADYSMITH      SUNNY     66  56  70 W9        30.01S
EAU CLAIRE     SUNNY     68  55  63 W12       30.02R
MENOMONIE      SUNNY     68  55  62 W12       30.04R
NEW RICHMOND   SUNNY     66  54  65 W9        30.06R
OSCEOLA        SUNNY     66  54  65 W12       30.07R
$$

WIZ003>005-009-010-017-018-311400-
NORTH CENTRAL WISCONSIN

CITY           SKY/WX    TMP DP  RH WIND       PRES   REMARKS
MANITOWISH WTR SUNNY     63  56  78 NW10G17   29.95R
ARBOR VITAE    SUNNY     65  56  73 NW8       29.95S
WOODRUFF       SUNNY     65  56  73 NW8       29.95S
RHINELANDER    SUNNY     65  56  72 W8        29.96R
EAGLE RIVER    SUNNY     64  56  73 W10       29.94R
LAND O LAKES   SUNNY     65  55  70 W10G21    29.94S
PHILLIPS       SUNNY     63  56  77 W5        29.97R
TOMAHAWK       PTSUNNY   63  56  79 W7G17     29.97R
MEDFORD        SUNNY     64  57  78 NW8       30.00R
MERRILL        NOT AVBL
$$

WIZ029-030-035-036-043>047-311400-
CENTRAL WISCONSIN

CITY           SKY/WX    TMP DP  RH WIND       PRES   REMARKS
WAUSAU         SUNNY     67  56  67 W15       29.96R
MOSINEE        SUNNY     66  57  72 W14G21    29.98S
MARSHFIELD     SUNNY     67  55  65 W13       30.00R
STEVENS POINT  SUNNY     67  56  69 W9        29.98S
WAUPACA        SUNNY     72  59  63 W15       29.96S
WAUTOMA        SUNNY     73  59  61 W13       29.98F
WISC RAPIDS    SUNNY     69  57  65 NW10      30.00S
CAMP DOUGLAS   SUNNY     70  66  88 W9        30.01R
$$

WIZ011>013-019>022-031-037>040-048>050-311400-
NORTHEAST WISCONSIN

CITY           SKY/WX    TMP DP  RH WIND       PRES   REMARKS
ANTIGO         PTSUNNY   64  59  85 W9        29.95S
SHAWANO        SUNNY     70  58  66 W12       29.93F
OCONTO         SUNNY     69  59  69 W10G17    29.90S
STURGEON BAY   SUNNY     70  57  64 W9        29.92S
GREEN BAY      SUNNY     70  60  70 W13       29.93S
MANITOWOC      SUNNY     72  61  68 MISG      29.93F
APPLETON       MOSUNNY   66  57  72 W9        29.96S
CLINTONVILLE   SUNNY     68  55  64 W12       29.94S
OSHKOSH        SUNNY     72  59  63 W6        29.96S
$$

WIZ032>034-041-042-053>061-311400-
SOUTHWEST WISCONSIN

CITY           SKY/WX    TMP DP  RH WIND       PRES   REMARKS
LA CROSSE      SUNNY     72  58  61 W8        30.03S
SPARTA         SUNNY     68  59  72 W5        30.03S
VIROQUA        SUNNY     67  62  83 W6        30.06S
BOSCOBEL       SUNNY     70  64  81 SW5       30.05S
PRAIRIE DU CHI SUNNY     72  60  67 W8        30.06R
PLATTEVILLE    SUNNY     69  66  92 W7        30.07R
$$

WIZ056-057-062-063-064-067-068-311400-
SOUTH CENTRAL WISCONSIN

CITY           SKY/WX    TMP DP  RH WIND       PRES   REMARKS
REEDSBURG      SUNNY     71  60  69 W8        30.02S
BARABOO/DELLS  SUNNY     70  57  62 W8        30.02S
LONE ROCK      SUNNY     68  62  81 W6        30.04S
MINERAL POINT  SUNNY     70  64  83 W6        30.06S
MADISON        SUNNY     71  61  70 W5        30.01S
MIDDLETON      SUNNY     71  62  73 W9        30.03S
WATERTOWN      SUNNY     69  64  84 W7        29.99F
MONROE         SUNNY     70  63  78 W9        30.05S
JANESVILLE     SUNNY     70  63  78 W6        30.02R
$$

WIZ051-052-058>065-066-070>072-311400-
SOUTHEAST WISCONSIN

CITY           SKY/WX    TMP DP  RH WIND       PRES   REMARKS
MILWAUKEE      MOSUNNY   74  58  57 W10       29.99S
WAUKESHA       SUNNY     70  57  64 W10       30.01R
MILWAUKEE/TIMM SUNNY     72  57  60 W8        29.99F
RACINE         MOSUNNY   73  59  61 W8        30.01S
BURLINGTON     MOSUNNY   71  59  65 W12       30.00S
KENOSHA        PTSUNNY   70  61  73 W8        30.00S
FOND DU LAC    SUNNY     71  60  68 W9        29.97S
SHEBOYGAN      SUNNY     72  60  66 W9        29.95F
WEST BEND      SUNNY     72  55  56 W10       29.98S
JUNEAU         SUNNY     67  60  79 W6        30.01S
$$

LSZ147-162-311400-
LAKE SUPERIOR

STATION/POSITION TIME  TEMP    WIND        PRES    WAVE
                       AIR SEA DIR/SP/G            HT/PER
                 (UTC) (F)     (DEG/KT/KT) (MB)    (FT/S)
W MID LAKE BUOY  1250   57 52  270/ 12/ 14 1011.5R   2/ 4
DEVILS ISLAND    1300   59     270/ 16/ 19 1012.9R
PORT WING        1200   65     240/ 10/ 16 1013.9R
SAXON HARBOR     1200   65                 1012.9R
$$

LMZ867-665-643>646-311400-
LAKE MICHIGAN

STATION/POSITION TIME  TEMP    WIND        PRES    WAVE
                       AIR SEA DIR/SP/G            HT/PER
                 (UTC) (F)     (DEG/KT/KT) (MB)    (FT/S)
CHAMBERS ISLAND  1200   66     220/  6/ 11 1011.9R
S GREEN BAY BUOY 1300   65 66  250/ 12/ 14 1014.0S
N MID LAKE BUOY  1250   69 68  250/ 14/ 16 1010.3F   2/ 4
NORTHPORT PIER   1200   69     270/  6/ 11 1011.2S
SISTER BAY       1129   70     290/ 16/ 19   N/A
ALGOMA LAKESHORE 1242          270/  7/ 13   N/A
KEWAUNEE LAKESHO 1200   68     280/  6/  9 1012.4R
SHEBOYGAN LAKESH 1300   72     260/ 10/ 14 1014.0F
PORT WASHINGTON  1200   72     280/  5/  7 1015.6R
ATWATER BUOY     1300   70 62  260/ 10/ 12 1016.3F
MILWAUKEE LAKESH 1200   72     270/  9/ 11   N/A
KENOSHA   LAKESH 1300   72     280/ 11/ 16 1015.2F
$$

TC  - TEMPERATURE IN CELSIUS
VSB - VISIBILITY IN STATUTE MILES
WCI - WIND CHILL INDEX
HX  - HEAT INDEX



USA.gov is the U.S. government's official web portal to all federal, state and local government web resources and services.